Home > Weather > Pittsburgh > Past weeks

Flag for USA Past Weather in Pittsburgh, Pennsylvania, USA — Yesterday and Last 2 Weeks

Now
83 °F

Partly sunny.


Feels Like: 86 °F
Forecast: 73 / 88 °F
Wind: 8 mph from Southwest

Location: Allegheny County Airport

Current Time: Aug 25, 2016 at 2:49:39 PM

Latest Report: Aug 25, 2016 at 1:53 PM


Visibility: 10 mi

Pressure: 30.06 "Hg

Humidity: 61%

Dew Point: 68 °F

Location of PittsburghLocation

Past Weather in Pittsburgh — Graph

°F

Pittsburgh Temperature Yesterday

Maximum temperature yesterday: 84 °F (at 3:53 PM)
Minimum temperature yesterday: 62 °F (at 4:53 AM)
Average temperature yesterday: 74 °F

High & Low Weather Summary for the Past Weeks

 TemperatureHumidityPressure
High90 °F (Aug 11, 3:53 PM)94% (Aug 19, 7:00 AM)30.33 "Hg (Aug 19, 7:00 AM)
Low59 °F (Aug 23, 6:53 AM)43% (Aug 24, 3:53 PM)29.73 "Hg (Aug 21, 5:53 AM)
Average75 °F74%30.05 "Hg
* Reported Aug 10 12:53 PM — Aug 25 12:53 PM, Pittsburgh, Weather by CustomWeather, © 2016

Note: Actual official high and low records may vary slightly from our data, if they occured in-between our weather recording intervals... More about our weather records

Advertising

Pittsburgh Weather History for the Previous 24 Hours

Scroll right to see more
 ConditionsComfort  
Time TempWeatherWind HumidityBarometerVisibility
12:53 PM
Thu, Aug 25
82 °FBroken clouds.7 mph63%30.07 "Hg10 mi
11:53 AM81 °FPartly sunny.7 mph67%30.06 "Hg10 mi
10:53 AM78 °FMostly cloudy.8 mph71%30.08 "Hg10 mi
9:53 AM76 °FMostly cloudy.13 mph80%30.08 "Hg10 mi
8:53 AM73 °FMore clouds than sun.8 mph90%30.08 "Hg7 mi
7:53 AM72 °FPartly sunny.9 mph87%30.06 "Hg8 mi
6:53 AM72 °FPassing clouds.10 mph87%30.04 "Hg8 mi
5:53 AM72 °FLight rain. Fog.8 mph87%30.03 "Hg4 mi
4:53 AM74 °FLight rain. Mostly cloudy.13 mph76%30.03 "Hg5 mi
3:53 AM74 °FMostly cloudy.9 mph74%30.03 "Hg10 mi
2:53 AM73 °FPassing clouds.8 mph76%30.05 "Hg10 mi
1:53 AM73 °FPassing clouds.9 mph74%30.06 "Hg10 mi
12:53 AM73 °FClear.7 mph74%30.07 "Hg10 mi
11:53 PM
Wed, Aug 24
74 °FClear.8 mph71%30.08 "Hg10 mi
10:53 PM76 °FPassing clouds.8 mph67%30.11 "Hg10 mi
9:53 PM76 °FClear.7 mph64%30.11 "Hg10 mi
8:53 PM78 °FSunny.6 mph58%30.11 "Hg10 mi
7:53 PM80 °FSunny.6 mph52%30.11 "Hg10 mi
6:53 PM83 °FSunny.9 mph48%30.12 "Hg10 mi
5:53 PM84 °FSunny.10 mph45%30.12 "Hg10 mi
4:53 PM84 °FSunny.13 mph45%30.13 "Hg10 mi
3:53 PM84 °FSunny.14 mph43%30.16 "Hg10 mi
2:53 PM83 °FSunny.10 mph46%30.18 "Hg10 mi
Weather by CustomWeather, © 2016

See weather overviewHow to use our weather pages